TimeMDT,TemperatureF,Dew PointF,Humidity,Sea Level PressureIn,VisibilityMPH,Wind Direction,Wind SpeedMPH,Gust SpeedMPH,PrecipitationIn,Events,Conditions,WindDirDegrees,DateUTC
12:56 AM,21.9,16.0,78,30.50,-9999.0,Calm,Calm,-,N/A,,Unknown,0,2013-05-03 06:56:00
1:56 AM,19.9,14.0,78,30.49,-9999.0,Calm,Calm,-,N/A,,Unknown,0,2013-05-03 07:56:00
2:56 AM,19.9,14.0,78,30.45,-9999.0,Calm,Calm,-,N/A,,Unknown,0,2013-05-03 08:56:00
3:56 AM,19.0,14.0,81,30.41,-9999.0,Calm,Calm,-,N/A,,Unknown,0,2013-05-03 09:56:00
4:56 AM,19.9,14.0,78,30.38,-9999.0,Calm,Calm,-,N/A,,Unknown,0,2013-05-03 10:56:00
5:56 AM,19.9,15.1,81,30.38,-9999.0,Calm,Calm,-,N/A,,Unknown,0,2013-05-03 11:56:00
6:56 AM,23.0,16.0,74,30.36,-9999.0,Calm,Calm,-,N/A,,Unknown,0,2013-05-03 12:56:00
7:56 AM,25.0,18.0,75,30.38,-9999.0,Calm,Calm,-,N/A,,Unknown,0,2013-05-03 13:56:00
8:56 AM,28.0,17.1,63,30.37,-9999.0,Calm,Calm,-,N/A,,Unknown,0,2013-05-03 14:56:00
9:56 AM,30.9,19.0,61,30.34,-9999.0,Calm,Calm,-,N/A,,Unknown,0,2013-05-03 15:56:00
10:56 AM,34.0,15.1,46,30.32,-9999.0,Calm,Calm,-,N/A,,Unknown,0,2013-05-03 16:56:00
11:56 AM,34.0,15.1,46,30.32,-9999.0,East,3.5,-,N/A,,Unknown,100,2013-05-03 17:56:00
12:56 PM,37.9,16.0,41,30.29,-9999.0,Calm,Calm,-,N/A,,Unknown,0,2013-05-03 18:56:00
1:56 PM,44.1,12.0,27,30.24,-9999.0,Calm,Calm,-,N/A,,Unknown,0,2013-05-03 19:56:00
2:56 PM,43.0,17.1,35,30.23,-9999.0,Calm,Calm,-,N/A,,Unknown,0,2013-05-03 20:56:00
3:56 PM,43.0,18.0,37,30.23,-9999.0,Calm,Calm,-,N/A,,Unknown,0,2013-05-03 21:56:00
4:56 PM,43.0,19.9,40,30.20,-9999.0,Variable,3.5,-,N/A,,Unknown,0,2013-05-03 22:56:00
5:56 PM,44.1,19.9,38,30.20,-9999.0,Variable,4.6,-,N/A,,Unknown,0,2013-05-03 23:56:00
6:56 PM,43.0,19.0,38,30.19,-9999.0,Variable,4.6,-,N/A,,Unknown,0,2013-05-04 00:56:00
7:56 PM,41.0,21.0,45,30.19,-9999.0,Calm,Calm,-,N/A,,Unknown,0,2013-05-04 01:56:00
8:56 PM,37.0,24.1,59,30.19,-9999.0,Calm,Calm,-,N/A,,Unknown,0,2013-05-04 02:56:00
9:56 PM,37.0,24.1,59,30.19,-9999.0,Calm,Calm,-,N/A,,Unknown,0,2013-05-04 03:56:00
10:56 PM,36.0,25.0,64,30.17,-9999.0,Calm,Calm,-,N/A,,Unknown,0,2013-05-04 04:56:00
11:56 PM,35.1,26.1,70,30.17,-9999.0,Calm,Calm,-,N/A,,Unknown,0,2013-05-04 05:56:00